Flag for Vietnam Weather past 2 weeks in Ho Chi Minh, Vietnam

84 °F

Passing clouds.

Feels Like: 90 °F
Forecast: 78 / 92 °F
Wind: 3 mph from Southwest

Location: Ho Chi Minh

Current Time: Nov 27, 2015 at 7:22:58 PM

Latest Report: Nov 27, 2015 at 6:30 PM

Visibility: N/A

Pressure: 29.83 "Hg

Humidity: 66%

Dew point: 72 °F

Location of Ho Chi MinhLocation

Historic Weather in Ho Chi Minh — Graph


Ho Chi Minh temperature yesterday

Maximum temperature yesterday: 91 °F (at 3:30 PM)
Minimum temperature yesterday: 77 °F (at 4:30 AM)
Average temperature yesterday: 83 °F

Past Weeks' High & Low Weather Summary

High95 °F (Nov 16, 1:30 PM)94% (Nov 22, 4:00 PM)29.89 "Hg (Nov 22, 4:00 PM)
Low75 °F (Nov 22, 4:00 PM)36% (Nov 20, 3:00 PM)29.71 "Hg (Nov 21, 2:30 PM)
Average84 °F70%29.81 "Hg
* Reported Nov 12 6:00 PM — Nov 27 6:00 PM, Ho Chi Minh, Weather by CustomWeather, © 2015

Note: Actual official high and low records may vary slightly from our data, if they occured in-between our weather recording intervals... More about our weather records


Ho Chi Minh weather history for previous 24 hours

Time TempWeatherWind HumidityBarometerVisibility
6:00 PM
Fri, Nov 27
84 °FPassing clouds.3 mph62%29.83 "HgN/A
5:30 PM86 °FPassing clouds.3 mph59%29.80 "HgN/A
5:00 PM86 °FScattered clouds.6 mph55%29.80 "HgN/A
4:30 PM88 °FScattered clouds.6 mph52%29.80 "HgN/A
4:00 PM90 °FScattered clouds.6 mph49%29.77 "HgN/A
3:30 PM90 °FScattered clouds.6 mph52%29.77 "HgN/A
3:00 PM90 °FScattered clouds.6 mph52%29.77 "HgN/A
1:30 PM90 °FPartly sunny.5 mph49%29.77 "HgN/A
1:00 PM90 °FPartly sunny.3 mph52%29.80 "Hg6 mi
12:30 PM90 °FPartly sunny.6 mph49%29.80 "Hg5 mi
12:00 PM90 °FScattered clouds.2 mph52%29.80 "Hg6 mi
11:30 AM90 °FPassing clouds.1 mph46%29.83 "HgN/A
11:00 AM90 °FPassing clouds.5 mph46%29.83 "HgN/A
10:30 AM88 °FSunny.3 mph52%29.86 "Hg10 mi
9:30 AM88 °FSunny.2 mph55%29.86 "Hg10 mi
9:00 AM84 °FClear.1 mph62%29.86 "Hg5 mi
8:30 AM82 °FClear.1 mph70%29.86 "Hg5 mi
8:00 AM81 °FClear.1 mph74%29.83 "Hg5 mi
7:30 AM79 °FScattered clouds.1 mph79%29.83 "Hg5 mi
7:00 AM77 °FScattered clouds.2 mph83%29.83 "Hg4 mi
6:30 AM77 °FScattered clouds.3 mph83%29.80 "Hg4 mi
6:00 AM75 °FScattered clouds.No wind83%29.80 "Hg4 mi
5:00 AM77 °FPassing clouds.2 mph79%29.77 "HgN/A
4:30 AM77 °FPassing clouds.1 mph79%29.77 "HgN/A
4:00 AM77 °FPassing clouds.2 mph79%29.77 "HgN/A
3:30 AM77 °FPassing clouds.2 mph79%29.77 "HgN/A
3:00 AM77 °FPassing clouds.2 mph79%29.77 "HgN/A
2:30 AM77 °FPassing clouds.2 mph79%29.77 "HgN/A
2:00 AM77 °FPassing clouds.2 mph79%29.77 "HgN/A
1:30 AM79 °FPassing clouds.3 mph74%29.80 "HgN/A
1:00 AM79 °FPassing clouds.5 mph74%29.80 "HgN/A
12:30 AM79 °FPassing clouds.3 mph74%29.80 "HgN/A
12:00 AM81 °FPassing clouds.5 mph66%29.80 "HgN/A
11:30 PM
Thu, Nov 26
81 °FPassing clouds.8 mph70%29.83 "HgN/A
11:00 PM82 °FPassing clouds.8 mph66%29.83 "HgN/A
10:30 PM82 °FPassing clouds.7 mph66%29.83 "HgN/A
10:00 PM82 °FPassing clouds.6 mph70%29.83 "HgN/A
9:30 PM82 °FPassing clouds.7 mph70%29.83 "HgN/A
9:00 PM84 °FPassing clouds.5 mph66%29.83 "HgN/A
8:30 PM84 °FPassing clouds.6 mph66%29.83 "HgN/A
8:00 PM84 °FPassing clouds.3 mph70%29.83 "HgN/A
7:30 PM84 °FPassing clouds.3 mph70%29.80 "HgN/A
7:00 PM84 °FPassing clouds.5 mph70%29.80 "HgN/A
Weather by CustomWeather, © 2015

See weather overviewHow to use our weather pages